User: anonymous   Login
Location: Banios
(43.0451°N, 0.2335°E)
Time: 12:50:54
(UTC+00:00)
Language:

Transit 4A - Orbit

View from above orbital plane
View from above orbital plane
View from above satellite
View from above satellite

Ground track
Ground track

The orbit data is extracted from the following two-line orbital elements,

1 00116U 61015A   21127.70784684 -.00000044  00000-0  25310-4 0  9992
2 00116  66.8076 135.5220 0071310 146.1083 214.4584 13.91788702 36931
Epoch (UTC): 07 May 2021 16:59:17
Eccentricity: 0.0071310
inclination: 66.8076°
perigee height: 870 km
apogee height: 974 km
right ascension of ascending node: 135.5220°
argument of perigee: 146.1083°
revolutions per day: 13.91788702
mean anomaly at epoch: 214.4584°
orbit number at epoch: 3693

The dashed part of the orbit path shows where the satellite is in the earth's shadow,  

DLR